Regional Weather Roundup
Issued by NWS Goodland, KS

Home | Current Version | Previous Version | Text Only | Print | Product List | Glossary On
Versions: 1 2 3 4 5 6 7 8 9 10 11 12 13 14 15 16 17 18 19 20 21 22 23 24 25 26 27 28 29 30 31 32 33 34 35 36 37 38 39 40 41 42 43 44 45 46 47 48 49 50
133
ASUS43 KGLD 240259
RWRGLD

GOODLAND FORECAST AREA HOURLY WEATHER ROUNDUP
NATIONAL WEATHER SERVICE GOODLAND KS
900 PM MDT SAT JUL 23 2016

...OFFICIAL OBSERVATIONS...

CITY           SKY/WX    TMP DP  RH WIND       PRES   REMARKS
GOODLAND KS    CLOUDY    74  59  59 E7        29.94R
HILL CITY KS   CLOUDY    87  69  54 NE9       29.84R
IMPERIAL NEB   CLEAR     83  61  47 N9        29.95S
MCCOOK NEB     CLEAR     79  69  71 N7        29.89R
AKRON CO       LGT RAIN  69  58  67 W22G43    30.15R
BURLINGTON CO  CLEAR     76  51  41 E8        30.00R
LIMON CO       LGT RAIN  66  58  75 N17G30    30.21R
$$

...UNOFFICIAL OBSERVATIONS...

CITY           SKY/WX    TMP DP  RH WIND       PRES   REMARKS
COLBY KS       CLEAR     81  64  57 NE9       29.92R
LENORA KS        N/A     84  32  15 MISG        N/A
NORTON KS      CLEAR     81  64  57 NE3       29.85R
YUMA CO          N/A     77  55  46 NE5         N/A
$$




USA.gov is the U.S. government's official web portal to all federal, state and local government web resources and services.